Погода в Оквилле

Канада     43°26′54″N   79°39′58″W
темп.,
°C
ветер,
м/с
пор.,
м/с
влажн.,
%
обл.,
%
осадки,
мм/ч
давл.,
гПа
погр.,
м
14 апреля, ср
ср1423:00+10с11765 0.0 101845
02:00+8юв018473 0.0 101722
05:00+6ю12821 0.0 101875
08:00+7зсз26710 0.0 1018213
11:00+12зюз35490 0.0 1016910
14:00+14зюз56365 0.0 10151814
17:00+15з563343 0.0 10122264
20:00+11зсз475791 0.0 10121173
15 апреля, чт
чт1523:00+8зсз3568100 0.0 1012659
02:00+6сз3466100 0.0 1011611
05:00+4зсз357390 0.0 1010385
08:00+3зсз457489 0.0 1010479
11:00+6з355285 0.0 10091524
14:00+8з3349100 0.3 10071746
17:00+8зсз2355100 0.9 10071227
20:00+6ссз3567100 1.7 1007688
16 апреля, пт
пт1623:00+4зсз38795 0.1 1007404
02:00+3зсз378590 0.1 1007462
05:00+4з4990100 0.1 1006540
08:00+4зсз4987100 0.1 1007651
11:00+4з4794100 0.3 1007616
14:00+7ссз2481100 0.3 1007702
17:00+7ссз3583100 0.1 1007594
20:00+5ссв4793100 0.3 1009841
17 апреля, сб
сб1723:00+5с3678100 0.1 1011606
02:00+5с3682100 0.1 1012381
05:00+5ссз3785100 0.0 1012355
08:00+6ссз367996 0.0 1012286
11:00+8ссз246798 0.0 1013692
14:00+13ссз234980 0.1 10111693
17:00+12зсз4458100 0.3 10101237
20:00+10сз376898 0.7 1011518
18 апреля, вс
вс1823:00+7зсз267943 0.1 1012262
02:00+6зсз388276 0.1 1012239
05:00+6зсз2582100 0.0 1011143
08:00+7сз2678100 0.1 1012235
11:00+10сз3465100 0.0 1013686
14:00+13сз2349100 0.3 10121543
17:00+12сз345796 0.4 10111228
20:00+9ссз3664100 0.6 1012482